Time,TemperatureF,DewpointF,PressureIn,WindDirection,WindDirectionDegrees,WindSpeedMPH,WindSpeedGustMPH,Humidity,HourlyPrecipIn,Conditions,Clouds,dailyrainin,SoftwareType,DateUTC
2013-03-06 00:03:00,30.0,21.0,29.85,South,184,0.0,1.0,69,0.00,,,0.00,weatherlink.com 1.10,2013-03-06 07:03:00,
2013-03-06 00:18:00,29.2,21.0,29.84,SW,235,0.0,2.0,70,0.00,,,0.00,weatherlink.com 1.10,2013-03-06 07:18:00,
2013-03-06 00:33:00,28.4,21.0,29.83,East,79,1.0,1.0,74,0.00,,,0.00,weatherlink.com 1.10,2013-03-06 07:33:00,
2013-03-06 00:48:00,28.8,22.0,29.82,SW,229,1.0,1.0,74,0.00,,,0.00,weatherlink.com 1.10,2013-03-06 07:48:00,
2013-03-06 01:03:00,29.7,22.0,29.81,ESE,105,1.0,1.0,72,0.00,,,0.00,weatherlink.com 1.10,2013-03-06 08:03:00,
2013-03-06 01:18:00,29.2,22.0,29.82,SW,235,1.0,2.0,74,0.00,,,0.00,weatherlink.com 1.10,2013-03-06 08:18:00,
2013-03-06 01:33:00,28.7,22.0,29.81,East,94,3.0,3.0,76,0.00,,,0.00,weatherlink.com 1.10,2013-03-06 08:33:00,
2013-03-06 01:48:00,28.0,22.0,29.80,SW,233,1.0,2.0,77,0.00,,,0.00,weatherlink.com 1.10,2013-03-06 08:48:00,
2013-03-06 02:03:00,28.5,22.0,29.81,WSW,244,3.0,3.0,78,0.00,,,0.00,weatherlink.com 1.10,2013-03-06 09:03:00,
2013-03-06 02:18:00,28.3,23.0,29.81,WSW,239,0.0,2.0,79,0.00,,,0.00,weatherlink.com 1.10,2013-03-06 09:18:00,
2013-03-06 02:33:00,27.8,22.0,29.80,East,79,2.0,5.0,79,0.00,,,0.00,weatherlink.com 1.10,2013-03-06 09:33:00,
2013-03-06 02:48:00,28.6,23.0,29.79,SW,225,1.0,2.0,78,0.00,,,0.00,weatherlink.com 1.10,2013-03-06 09:48:00,
2013-03-06 03:03:00,32.1,23.0,29.77,WSW,239,0.0,2.0,70,0.00,,,0.00,weatherlink.com 1.10,2013-03-06 10:03:00,
2013-03-06 03:19:00,31.9,24.0,29.76,WSW,238,3.0,3.0,72,0.00,,,0.00,weatherlink.com 1.10,2013-03-06 10:19:00,
2013-03-06 03:33:00,31.1,24.0,29.77,WSW,245,0.0,2.0,75,0.00,,,0.00,weatherlink.com 1.10,2013-03-06 10:33:00,
2013-03-06 03:48:00,31.0,24.0,29.78,ESE,105,0.0,4.0,75,0.00,,,0.00,weatherlink.com 1.10,2013-03-06 10:48:00,
2013-03-06 04:04:00,30.1,23.0,29.79,ENE,77,2.0,2.0,76,0.00,,,0.00,weatherlink.com 1.10,2013-03-06 11:04:00,
2013-03-06 04:19:00,31.4,24.0,29.79,SW,236,0.0,7.0,74,0.00,,,0.00,weatherlink.com 1.10,2013-03-06 11:19:00,
2013-03-06 04:34:00,30.0,27.0,29.79,WNW,297,0.0,3.0,88,0.00,,,0.00,weatherlink.com 1.10,2013-03-06 11:34:00,
2013-03-06 04:49:00,29.3,27.0,29.80,WSW,240,0.0,2.0,91,0.00,,,0.00,weatherlink.com 1.10,2013-03-06 11:49:00,
2013-03-06 05:04:00,29.0,27.0,29.80,SW,221,0.0,2.0,92,0.00,,,0.00,weatherlink.com 1.10,2013-03-06 12:04:00,
2013-03-06 05:19:00,28.9,27.0,29.80,East,83,3.0,3.0,93,0.00,,,0.00,weatherlink.com 1.10,2013-03-06 12:19:00,
2013-03-06 05:34:00,29.2,28.0,29.78,West,276,1.0,4.0,94,0.00,,,0.00,weatherlink.com 1.10,2013-03-06 12:34:00,
2013-03-06 05:49:00,29.6,28.0,29.78,WSW,240,1.0,2.0,94,0.00,,,0.00,weatherlink.com 1.10,2013-03-06 12:49:00,
2013-03-06 06:04:00,29.5,28.0,29.77,ESE,112,0.0,2.0,94,0.00,,,0.00,weatherlink.com 1.10,2013-03-06 13:04:00,
2013-03-06 06:19:00,29.5,28.0,29.76,SSE,154,0.0,1.0,94,0.00,,,0.00,weatherlink.com 1.10,2013-03-06 13:19:00,
2013-03-06 06:34:00,29.2,28.0,29.75,WSW,240,0.0,2.0,94,0.00,,,0.00,weatherlink.com 1.10,2013-03-06 13:34:00,
2013-03-06 06:49:00,29.0,28.0,29.75,WSW,240,0.0,1.0,94,0.00,,,0.00,weatherlink.com 1.10,2013-03-06 13:49:00,
2013-03-06 07:04:00,28.8,27.0,29.75,WSW,241,0.0,1.0,94,0.00,,,0.00,weatherlink.com 1.10,2013-03-06 14:04:00,
2013-03-06 07:19:00,28.5,27.0,29.73,WSW,240,0.0,1.0,94,0.00,,,0.00,weatherlink.com 1.10,2013-03-06 14:19:00,
2013-03-06 07:34:00,28.4,27.0,29.73,SE,125,0.0,0.0,95,0.00,,,0.00,weatherlink.com 1.10,2013-03-06 14:34:00,
2013-03-06 07:49:00,28.6,27.0,29.72,SE,125,0.0,1.0,95,0.00,,,0.00,weatherlink.com 1.10,2013-03-06 14:49:00,
2013-03-06 08:04:00,28.9,28.0,29.71,SE,126,0.0,1.0,95,0.00,,,0.00,weatherlink.com 1.10,2013-03-06 15:04:00,
2013-03-06 08:19:00,29.4,28.0,29.71,East,82,0.0,0.0,95,0.00,,,0.00,weatherlink.com 1.10,2013-03-06 15:19:00,
2013-03-06 08:34:00,29.8,28.0,29.71,WSW,237,0.0,2.0,94,0.00,,,0.00,weatherlink.com 1.10,2013-03-06 15:34:00,
2013-03-06 08:49:00,30.0,29.0,29.73,SW,221,0.0,1.0,94,0.00,,,0.00,weatherlink.com 1.10,2013-03-06 15:49:00,
2013-03-06 09:04:00,29.9,28.0,29.73,SW,229,0.0,1.0,94,0.00,,,0.00,weatherlink.com 1.10,2013-03-06 16:04:00,
2013-03-06 09:19:00,30.0,29.0,29.72,ENE,77,2.0,3.0,94,0.00,,,0.00,weatherlink.com 1.10,2013-03-06 16:19:00,
2013-03-06 09:34:00,32.5,30.0,29.71,East,94,1.0,3.0,91,0.00,,,0.00,weatherlink.com 1.10,2013-03-06 16:34:00,
2013-03-06 09:49:00,32.8,31.0,29.70,SW,236,1.0,3.0,91,0.00,,,0.00,weatherlink.com 1.10,2013-03-06 16:49:00,
2013-03-06 10:04:00,34.3,32.0,29.69,ESE,106,0.0,1.0,90,0.00,,,0.00,weatherlink.com 1.10,2013-03-06 17:04:00,
2013-03-06 10:19:00,34.7,32.0,29.70,SW,221,1.0,2.0,88,0.00,,,0.00,weatherlink.com 1.10,2013-03-06 17:19:00,
2013-03-06 10:34:00,34.1,31.0,29.69,East,84,6.0,6.0,89,0.00,,,0.00,weatherlink.com 1.10,2013-03-06 17:34:00,
2013-03-06 10:49:00,33.0,30.0,29.69,ESE,120,1.0,7.0,90,0.00,,,0.00,weatherlink.com 1.10,2013-03-06 17:49:00,
2013-03-06 11:04:00,35.8,32.0,29.68,South,181,1.0,6.0,87,0.00,,,0.00,weatherlink.com 1.10,2013-03-06 18:04:00,
2013-03-06 11:19:00,36.3,33.0,29.68,ESE,104,1.0,4.0,87,0.00,,,0.00,weatherlink.com 1.10,2013-03-06 18:19:00,
2013-03-06 11:34:00,36.1,32.0,29.67,East,84,8.0,10.0,85,0.00,,,0.00,weatherlink.com 1.10,2013-03-06 18:34:00,
2013-03-06 11:49:00,36.0,32.0,29.67,SE,124,7.0,16.0,84,0.00,,,0.00,weatherlink.com 1.10,2013-03-06 18:49:00,
2013-03-06 12:04:00,36.2,32.0,29.68,ENE,73,8.0,12.0,85,0.00,,,0.00,weatherlink.com 1.10,2013-03-06 19:04:00,
2013-03-06 12:19:00,35.2,32.0,29.68,ESE,108,4.0,11.0,88,0.00,,,0.00,weatherlink.com 1.10,2013-03-06 19:19:00,
2013-03-06 12:35:00,35.0,32.0,29.67,ENE,57,6.0,12.0,90,0.00,,,0.00,weatherlink.com 1.10,2013-03-06 19:35:00,
2013-03-06 12:50:00,35.9,32.0,29.65,East,93,5.0,12.0,87,0.02,,,0.02,weatherlink.com 1.10,2013-03-06 19:50:00,
2013-03-06 13:05:00,37.6,33.0,29.64,ESE,118,8.0,12.0,82,0.05,,,0.05,weatherlink.com 1.10,2013-03-06 20:05:00,
2013-03-06 13:20:00,37.4,32.0,29.63,East,98,7.0,12.0,82,0.08,,,0.08,weatherlink.com 1.10,2013-03-06 20:20:00,
2013-03-06 13:35:00,35.5,31.0,29.66,West,277,4.0,10.0,85,0.09,,,0.09,weatherlink.com 1.10,2013-03-06 20:35:00,
2013-03-06 13:50:00,31.8,30.0,29.70,SW,235,0.0,5.0,92,0.06,,,0.09,weatherlink.com 1.10,2013-03-06 20:50:00,
2013-03-06 14:05:00,31.2,29.0,29.73,East,88,2.0,3.0,93,0.04,,,0.09,weatherlink.com 1.10,2013-03-06 21:05:00,
2013-03-06 14:20:00,30.4,29.0,29.71,East,82,2.0,3.0,93,0.01,,,0.09,weatherlink.com 1.10,2013-03-06 21:20:00,
2013-03-06 14:35:00,30.7,29.0,29.70,East,80,2.0,3.0,94,0.01,,,0.10,weatherlink.com 1.10,2013-03-06 21:35:00,
2013-03-06 14:50:00,32.3,30.0,29.70,ENE,72,5.0,7.0,91,0.01,,,0.10,weatherlink.com 1.10,2013-03-06 21:50:00,
2013-03-06 15:05:00,33.7,30.0,29.70,ESE,110,2.0,5.0,87,0.02,,,0.11,weatherlink.com 1.10,2013-03-06 22:05:00,
2013-03-06 15:20:00,35.5,31.0,29.70,ESE,105,3.0,5.0,83,0.02,,,0.11,weatherlink.com 1.10,2013-03-06 22:20:00,
2013-03-06 15:35:00,34.7,29.0,29.71,East,86,3.0,7.0,80,0.02,,,0.12,weatherlink.com 1.10,2013-03-06 22:35:00,
2013-03-06 15:50:00,34.7,29.0,29.70,ESE,103,1.0,4.0,79,0.04,,,0.14,weatherlink.com 1.10,2013-03-06 22:50:00,
2013-03-06 16:05:00,34.2,30.0,29.72,WSW,250,5.0,5.0,84,0.03,,,0.14,weatherlink.com 1.10,2013-03-06 23:05:00,
2013-03-06 16:20:00,31.9,29.0,29.71,ESE,117,4.0,4.0,90,0.04,,,0.15,weatherlink.com 1.10,2013-03-06 23:20:00,
2013-03-06 16:35:00,31.6,29.0,29.71,NE,44,2.0,7.0,91,0.03,,,0.15,weatherlink.com 1.10,2013-03-06 23:35:00,
2013-03-06 16:50:00,31.4,29.0,29.71,East,81,3.0,4.0,91,0.02,,,0.16,weatherlink.com 1.10,2013-03-06 23:50:00,
2013-03-06 17:05:00,32.0,29.0,29.70,East,92,1.0,2.0,90,0.02,,,0.16,weatherlink.com 1.10,2013-03-07 00:05:00,
2013-03-06 17:20:00,32.2,29.0,29.70,SSE,158,1.0,4.0,89,0.02,,,0.17,weatherlink.com 1.10,2013-03-07 00:20:00,
2013-03-06 17:35:00,32.5,29.0,29.71,ESE,108,0.0,5.0,85,0.02,,,0.17,weatherlink.com 1.10,2013-03-07 00:35:00,
2013-03-06 17:50:00,32.2,28.0,29.71,ESE,108,0.0,4.0,85,0.01,,,0.17,weatherlink.com 1.10,2013-03-07 00:50:00,
2013-03-06 18:05:00,31.7,29.0,29.74,WSW,240,3.0,3.0,91,0.01,,,0.17,weatherlink.com 1.10,2013-03-07 01:05:00,
2013-03-06 18:20:00,30.5,28.0,29.74,ENE,77,2.0,5.0,91,0.00,,,0.17,weatherlink.com 1.10,2013-03-07 01:20:00,
2013-03-06 18:35:00,30.1,28.0,29.75,East,92,0.0,3.0,92,0.00,,,0.17,weatherlink.com 1.10,2013-03-07 01:35:00,
2013-03-06 18:50:00,29.9,28.0,29.75,East,79,3.0,4.0,93,0.00,,,0.17,weatherlink.com 1.10,2013-03-07 01:50:00,
2013-03-06 19:05:00,29.3,28.0,29.75,East,93,4.0,5.0,94,0.00,,,0.17,weatherlink.com 1.10,2013-03-07 02:05:00,
2013-03-06 19:20:00,29.8,28.0,29.76,ESE,103,6.0,8.0,93,0.00,,,0.17,weatherlink.com 1.10,2013-03-07 02:20:00,
2013-03-06 19:35:00,30.1,28.0,29.76,East,90,4.0,7.0,92,0.00,,,0.17,weatherlink.com 1.10,2013-03-07 02:35:00,
2013-03-06 19:50:00,30.0,28.0,29.78,SW,229,1.0,7.0,93,0.00,,,0.17,weatherlink.com 1.10,2013-03-07 02:50:00,
2013-03-06 20:05:00,29.9,28.0,29.78,West,259,1.0,3.0,94,0.00,,,0.17,weatherlink.com 1.10,2013-03-07 03:05:00,
2013-03-06 20:20:00,30.2,28.0,29.79,East,90,4.0,10.0,92,0.00,,,0.17,weatherlink.com 1.10,2013-03-07 03:20:00,
2013-03-06 20:35:00,30.1,28.0,29.80,ESE,113,6.0,13.0,90,0.00,,,0.17,weatherlink.com 1.10,2013-03-07 03:35:00,
2013-03-06 20:50:00,30.0,27.0,29.81,East,89,5.0,17.0,89,0.00,,,0.17,weatherlink.com 1.10,2013-03-07 03:50:00,
2013-03-06 21:05:00,29.3,27.0,29.83,WSW,248,5.0,13.0,92,0.00,,,0.17,weatherlink.com 1.10,2013-03-07 04:05:00,
2013-03-06 21:20:00,28.8,27.0,29.85,East,98,7.0,9.0,94,0.00,,,0.17,weatherlink.com 1.10,2013-03-07 04:20:00,
2013-03-06 21:35:00,28.8,27.0,29.86,ESE,102,3.0,8.0,94,0.00,,,0.17,weatherlink.com 1.10,2013-03-07 04:35:00,
2013-03-06 21:50:00,28.6,27.0,29.87,East,95,0.0,4.0,93,0.00,,,0.17,weatherlink.com 1.10,2013-03-07 04:50:00,
2013-03-06 22:06:00,28.5,27.0,29.88,ESE,102,1.0,3.0,93,0.00,,,0.17,weatherlink.com 1.10,2013-03-07 05:06:00,
2013-03-06 22:21:00,28.3,27.0,29.89,East,91,2.0,5.0,95,0.00,,,0.17,weatherlink.com 1.10,2013-03-07 05:21:00,
2013-03-06 22:36:00,28.1,27.0,29.90,ENE,63,3.0,5.0,95,0.00,,,0.17,weatherlink.com 1.10,2013-03-07 05:36:00,
2013-03-06 22:51:00,28.1,27.0,29.91,East,91,3.0,6.0,95,0.00,,,0.17,weatherlink.com 1.10,2013-03-07 05:51:00,
2013-03-06 23:06:00,27.9,27.0,29.92,East,101,1.0,5.0,95,0.00,,,0.17,weatherlink.com 1.10,2013-03-07 06:06:00,
2013-03-06 23:21:00,27.7,26.0,29.93,ESE,120,1.0,5.0,94,0.00,,,0.17,weatherlink.com 1.10,2013-03-07 06:21:00,
2013-03-06 23:36:00,27.4,25.0,29.93,SE,124,0.0,2.0,91,0.00,,,0.17,weatherlink.com 1.10,2013-03-07 06:36:00,
2013-03-06 23:51:00,27.0,25.0,29.94,ESE,113,1.0,5.0,90,0.00,,,0.17,weatherlink.com 1.10,2013-03-07 06:51:00,